FREGAT DEB, 49271

Orbit data source: Space-Track

FREGAT DEB, 49271 is space debris in LEO originally from a launch on Mon, 18 Jul 2011 UTC launched from the Tyuratam Missile And Space Complex (TTMTR). Debris objects in space refer to the collection of defunct objects orbiting the Earth. Examples of debris include non-operational satellites, rocket bodies, and fragments generated from explosions, collisions, or faulty payload assembly.

Loading next visibility...
Identifier
49271, 2011-037PF
Orbit
LEO
Country
Flag of CISCIS
Related business
Manufacturer
Lavochkin
Mission
Spacecraft
Bus & Motor
Unknown
Mass
Unknown
Launch date (UTC)
2011-07-18 (14 years ago)
Launch vehicle
Unknown
Launch site
Tyuratam Missile And Space Complex (TTMTR)
Object type
Payload
Rocket body
Debris
Shape & HBR
Unknown shape, 0.1 m
Radar Cross Section
Small (<0.1 m²)

Expand to show TLE details & history
Last TLE update: 1 day ago

TLE from 1 day ago
0 FREGAT DEB
1 49271U 11037PF  25340.01288556  .00007067  00000-0  15815-1 0  9995
2 49271  51.6281 219.3181 0866674 209.1615 145.8081 12.34381445201100
Epoch: 2025-12-06T00:18Z
TLE epoch observation values (Epoch: 2025-12-06T00:18:33.312Z)
Latitude
0.00006°
Longitude
139.63262°
Altitude
2,114.961 km
Speed
6.595 km/s
True Right ascension
14h 37m 16s
True Declination
0° 00' 00"
Sunlit
Object was in daylight at epoch
Visualization orbit readout
Latitude
Unknown
Longitude
Unknown
Altitude
Unknown
Speed
Unknown
Apparent Right ascension
Unknown
Apparent Declination
Unknown
Sunlit
N/A
Visualization observer readout
Local Sidereal Time
04:08:17
Azimuth
Unknown
Elevation
Unknown
Doppler factor
Unknown
Orbital elements
Apogee altitude
2,216.416 km
Perigee altitude
845.495 km
Semi-major axis
7,909.092 km
Eccentricity
0.08667
Inclination
51.6281°
RAAN
219.3181°
Arg. of periapsis
209.1615°
True anomaly
150.92216°
Mean anomaly
145.8081°
Eccentric anomaly
148.40935°
Mean motion
3.0857 °/min
Orbital period
116.67 mins
BSTAR
0.015815
Loading maneuver chart data...
Computing Atmospheric mass density...
Loading historical data...
Loading historical data...
Loading historical data...
Loading historical data...
Loading historical data...
Loading historical data...
Loading historical data...

Documentation

Showing up to 5 results
|